Location: Gez
(43.0167°N, 0.1000°W)
Time: 02:15:14
(UTC+00:00)

Meteor 2-20 Rocket - Pass Details

Date: 08 August 2025
Orbit: 871 x 1024 km, 82.5° (Epoch: 16 May)

Event Time Altitude Azimuth Distance (km) Brightness Sun altitude
Rises 20:25:55 0° 350° (N) 3,483 8.2 -12.5°
Reaches altitude 10° 20:28:21 10° 349° (N) 2,533 7.4 -12.9°
Maximum altitude 20:34:04 80° 264° (W) 890 4.4 -13.7°
Drops below altitude 10° 20:39:47 10° 178° (S) 2,525 6.3 -14.5°
Enters shadow 20:40:27 - 178° (S) 2,787 6.5 -14.6°
